STARLINK-5679, 55467

Orbit data source: Space-Track

STARLINK-5679, 55467 is a payload satellite owned by SpaceX/Seattle (US) in LEO that was launched on Thu, 02 Feb 2023 UTC via an FALCON 9 launch vehicle from the Air Force Eastern Test Range (AFETR). Payload-class satellites include a variety of spacecraft equipped with specific instruments for various scientific and technological missions. These include communications satellites like Starlink; space stations such as the ISS; scientific satellites like the Hubble; Earth observation satellites from companies like Planet Labs, Umbra, and HawkEye 360; GPS; miniature CubeSats for education and research; and military/defense satellites.

Loading next visibility...
Identifier
55467, 2023-015U
Orbit
LEO
Country
Flag of USUS
Related business
Manufacturer
SpaceX/Seattle
Mission
Operational Commercial Communications
Bus & Motor
STARLINK, Unknown motor
Mass
305 kg wet, ~290 kg dry
Launch date (UTC)
2023-02-02 (4 years ago)
Launch vehicle
FALCON 9
Launch site
Air Force Eastern Test Range (AFETR)
Object type
Payload
Rocket body
Debris
Shape & HBR
Box + 1 Pan, 10.1 m
Radar Cross Section
13.562 m², Large (>1 m²)

Expand to show TLE details & history
Last TLE update: 10 hours ago

TLE from 10 hours ago
0 STARLINK-5679
1 55467U 23015U   26258.56228526  .00000734  00000-0  36189-4 0  9992
2 55467  43.0032 336.1537 0001643 268.4051  91.6612 15.27575444199760
Epoch: 2026-09-15T13:29Z
TLE epoch observation values (Epoch: 2026-09-15T13:29:41.446Z)
Latitude
-0.00005°
Longitude
139.20451°
Altitude
482.871 km
Speed
7.626 km/s
True Right ascension
22h 24m 36s
True Declination
0° 00' 00"
Sunlit
Object was in full shadow at epoch
Visualization orbit readout
Latitude
Unknown
Longitude
Unknown
Altitude
Unknown
Speed
Unknown
Apparent Right ascension
Unknown
Apparent Declination
Unknown
Sunlit
N/A
Visualization observer readout
Local Sidereal Time
15:47:40
Azimuth
Unknown
Elevation
Unknown
Doppler factor
Unknown
Orbital elements
Apogee altitude
486.135 km
Perigee altitude
483.88 km
Semi-major axis
6,863.144 km
Eccentricity
0.00016
Inclination
43.0032°
RAAN
336.1537°
Arg. of periapsis
268.4051°
True anomaly
91.68002°
Mean anomaly
91.6612°
Eccentric anomaly
91.67061°
Mean motion
3.81732 °/min
Orbital period
94.31 mins
BSTAR
0.000036189
Loading maneuver chart data...
Computing Atmospheric mass density...
Loading historical data...
Loading historical data...
Loading historical data...
Loading historical data...
Loading historical data...
Loading historical data...
Loading historical data...

Documentation

Showing up to 5 results
|